Regional Weather Roundup
Issued by NWS

Home | Current Version | Previous Version | Graphics & Text | Print | Product List | Glossary On
Versions: 1 2 3 4 5 6 7 8 9 10 11 12 13 14 15 16 17 18 19 20 21 22 23 24 25 26 27 28 29
000
ASUS45 KBOI 250110
RWRID
WEATHER ROUNDUP FOR IDAHO
NATIONAL WEATHER SERVICE BOISE ID
700 PM MDT FRI OCT 24 2014

NOTE: "FAIR" INDICATES FEW OR NO CLOUDS BELOW 12000 FEET
WITH NO SIGNIFICANT WEATHER AND/OR OBSTRUCTIONS TO VISIBILITY

IDZ012-014-250200-
SOUTHWEST IDAHO


CITY           SKY/WX    TMP DP  RH WIND       PRES   REMARKS
BOISE          CLEAR     59  50  72 W5        29.97R
CALDWELL       CLEAR     55  45  67 NW8       29.99S
MOUNTAIN HOME  CLEAR     62  48  60 NW6       29.95S
$$

IDZ016-017-250200-
SOUTHCENTRAL IDAHO


CITY           SKY/WX    TMP DP  RH WIND       PRES   REMARKS
BURLEY         CLEAR     63  35  35 CALM      30.01S
JEROME         PTCLDY    61  34  36 NE13      30.01F
TWIN FALLS     CLEAR     63  34  33 N5        30.01F
$$

IDZ019>023-250200-
SOUTHEAST IDAHO


CITY           SKY/WX    TMP DP  RH WIND       PRES   REMARKS
IDAHO FALLS    CLEAR     64  32  30 S3        30.09S
POCATELLO      CLEAR     65  26  23 S15       30.06F
REXBURG        CLEAR     59  30  33 S6        30.09S
$$

IDZ006-010-011-018-031-032-250200-
CENTRAL IDAHO MOUNTAINS


CITY           SKY/WX    TMP DP  RH WIND       PRES   REMARKS
MCCALL         CLEAR     47  44  90 N6        30.03F
HAILEY         CLEAR     55  30  38 CALM      30.10F
STANLEY          N/A     48  29  47 S5        30.12S
SALMON         MOCLDY    46  43  87 CALM      30.07R
CHALLIS        CLEAR     48  40  73 NW5       30.06S
$$

IDZ002-004-006-007-026-250200-
NORTHERN IDAHO


CITY           SKY/WX    TMP DP  RH WIND       PRES   REMARKS
LEWISTON       LGT RAIN  54  50  86 NE5       29.99F
LOWELL           N/A     51  50  96 NW3       30.05F
COEUR D`ALENE  CLOUDY    50  41  71 N10       30.03F
MULLAN PASS    CLOUDY    36  35  96 SE6       30.07S WCI  31
$$



USA.gov is the U.S. government's official web portal to all federal, state and local government web resources and services.